Content
SEND FEEDBACK

Daily
Averages
Monthly
Summary
United States of America

OCEANSIDE, NEW YORK


Home > North America > United States > New York
Elevation: 12 feet     Latitude: 40 38N     Longitude: 073 38W

WEATHER
 
SELECT A DAY
Number of Records: 185,505;   Date Range: 1/1/95 - 8/30/14
 
SHARE

PRINT THIS DATA

[ ← Previous Day ]
WEATHER ALMANAC - MARCH 4, 2014
[ Next Day → ]
[ °C ]   °F
Weather ElementAverageHighLow
Temperature22 °F28 °F (9:51 pm)12.9 °F (6:51 am)
Dewpoint4.2 °F12.9 °F (7:51 pm)-4 °F (3:51 am)
Humidity46.8 %56 % (7:51 pm)37 % (12:51 pm)
Barometer30.35 in30.44 in (8:51 am)30.27 in (11:51 pm)
Wind Speed7.8 mph13.8 mph (3:51 am)
Weather ElementAverage
Visibility10 mi
Wind DirectionSSW (196.5 °)

Weather ElementTotal
Precipitation---
Heating Degree Days44.6 (Base 65)
Averaged from 23 records on March 4, 2014
WEATHER CONDITIONS BREAKOUT
WIND DIRECTION BREAKOUT
WEATHER BY HOUR - MARCH 4, 2014
[ °C ]   °F
Local TimeTemperatureDewpointHumidityBarometerVisibilityWind DirectionWind SpeedGust SpeedPrecipitationEventsConditions
1:51 AM17.1 °F-2.9 °F41 %30.35 in10.0 miNorth (10°)8.1 mphClear
2:51 AM16.0 °F-2.9 °F43 %30.35 in10.0 miNorth (350°)12.7 mphClear
3:51 AM15.1 °F-4.0 °F43 %30.35 in10.0 miNorth (350°)13.8 mphClear
4:51 AM14.0 °F-2.9 °F47 %30.37 in10.0 miNorth (10°)10.4 mphScattered Clouds
5:51 AM14.0 °F-4.0 °F45 %30.38 in10.0 miNorth (10°)12.7 mphScattered Clouds
6:51 AM12.9 °F-2.0 °F51 %30.40 in10.0 miNorth (360°)8.1 mphMostly Cloudy
7:51 AM15.1 °F0.0 °F51 %30.43 in10.0 miNorth (360°)11.5 mphMostly Cloudy
8:51 AM18.0 °F1.9 °F50 %30.44 in10.0 miNorth (360°)10.4 mphOvercast
9:51 AM19.9 °F3.9 °F50 %30.43 in10.0 miNorth (360°)11.5 mphOvercast
10:51 AM21.9 °F3.0 °F44 %30.42 in10.0 miNNE (20°)6.9 mphOvercast
11:51 AM23.0 °F1.0 °F39 %30.40 in10.0 miCalmOvercast
12:51 PM26.1 °F3.0 °F37 %30.36 in10.0 miWSW (240°)6.9 mphMostly Cloudy
1:51 PM25.0 °F1.9 °F37 %30.34 in10.0 miVariable4.6 mphMostly Cloudy
2:51 PM26.1 °F9.0 °F49 %30.32 in10.0 miSSW (210°)6.9 mphMostly Cloudy
3:51 PM26.1 °F3.9 °F39 %30.32 in10.0 miSW (220°)8.1 mphMostly Cloudy
4:51 PM26.1 °F9.0 °F49 %30.30 in10.0 miSouth (190°)6.9 mphMostly Cloudy
5:51 PM26.1 °F10.9 °F53 %30.30 in10.0 miSouth (180°)6.9 mphMostly Cloudy
6:51 PM26.1 °F12.0 °F55 %30.31 in10.0 miSouth (190°)5.8 mphMostly Cloudy
7:51 PM27.0 °F12.9 °F56 %30.30 in10.0 miSSW (200°)4.6 mphMostly Cloudy
8:51 PM27.0 °F10.0 °F49 %30.30 in10.0 miWSW (240°)6.9 mphMostly Cloudy
9:51 PM28.0 °F10.0 °F47 %30.30 in10.0 miSW (230°)4.6 mphOvercast
10:51 PM27.0 °F10.9 °F51 %30.28 in10.0 miSW (220°)4.6 mphOvercast
11:51 PM28.0 °F12.0 °F51 %30.27 in10.0 miSSW (210°)5.8 mphOvercast
Hourly data recorded from KJFK, located miles away from Oceanside, New York







STORIES FROM OUR PARTNERS